Location: Unspecified
(0.0000°N, 0.0000°E)
Time: 16:06:48
(UTC+01:00)

CZ-4B DEB - Visible Passes

Search period start: 11 February 2016 00:00
Search period end: 21 February 2016 00:00
Orbit: 453 x 459 km, 97.5° (Epoch: 11 February)

Date Brightness Start Highest point End Pass type
(mag) Time Alt. Az. Time Alt. Az. Time Alt. Az.
11 Feb 4.1 20:30:33 10° S 20:33:50 44° WSW 20:37:05 10° NNW visible
12 Feb 3.3 19:57:30 10° SSE 20:00:43 39° E 20:03:55 10° N visible
13 Feb 6.0 20:57:59 10° SW 21:00:09 16° WSW 21:02:18 10° WNW visible
14 Feb 3.4 20:23:34 10° S 20:26:57 62° W 20:30:18 10° NNW visible
15 Feb 3.7 19:50:41 10° SE 19:53:42 29° E 19:56:41 10° NNE visible
16 Feb 5.6 20:50:21 10° SSW 20:52:59 21° W 20:55:37 10° NW visible
17 Feb 2.8 20:16:14 10° S 20:19:39 88° W 20:23:03 10° NNW visible
18 Feb 4.1 19:43:36 10° SE 19:46:16 22° ENE 19:48:57 10° NNE visible
19 Feb 5.0 20:42:26 10° SSW 20:45:25 28° WSW 20:48:24 10° NW visible
20 Feb 2.8 20:08:34 10° SSE 20:11:57 63° ENE 20:15:19 10° N visible
